Weather History for Klawock, AK

Change the Weather History Date:

Monday, November 12, 2012

  Actual Average Record
Temperature  
Mean Temperature 38 °F -  
Max Temperature 44 °F 43 °F 52 °F (2002)
Min Temperature 32 °F 34 °F 30 °F (1998)
Degree Days  
Heating Degree Days 27    
Moisture  
Dew Point 38 °F    
Average Humidity 94    
Maximum Humidity 100    
Minimum Humidity 89    
Precipitation  
Precipitation 0.09 in - - ()
Sea Level Pressure  
Sea Level Pressure 29.81 in    
Wind  
Wind Speed 5 mph (NE)    
Max Wind Speed 9 mph    
Max Gust Speed -    
Visibility 10 miles    
Events Rain    
Averages and records for this station are not official NWS values.
T = Trace of Precipitation, MM = Missing Value Source: NWS Daily Summary

Daily Weather History Graph

Daily Weather History Graph

Search for Another Location

Airport:

Trip Planner

Search our weather history database for the weather conditions in past years. The results will help you decide how hot, cold, wet, or windy it might be!

Date:

Astronomy

Nov. 12, 2012 Rise Set
Actual Time 7:22 AM AKST 3:50 PM AKST
Civil Twilight 6:40 AM AKST 4:31 PM AKST
Nautical Twilight 5:56 AM AKST 5:16 PM AKST
Astronomical Twilight 5:12 AM AKST 5:59 PM AKST
Moon 5:48 AM AKST (11/12) 3:04 PM AKST (11/12)
Length of Visible Light 9h 50m
Length of Day
8h 28m
Waning Crescent, 2% of the Moon is Illuminated
Nov 12
Waning Crescent
Nov 13
New
Nov 20
First Quarter
Nov 28
Full
Dec 6
Last Quarter

Hourly Weather History & Observations

Time (AKST) Temp. Windchill Dew Point Humidity Pressure Visibility Wind Dir Wind Speed Gust Speed Precip Events Conditions
12:53 AM 39.9 °F 34.5 °F 37.9 °F 93% 29.72 in 10.0 mi NNE 8.1 mph - 0.02 in Rain Light Rain
1:53 AM 39.9 °F 37.8 °F 37.9 °F 93% 29.72 in 10.0 mi NE 3.5 mph - 0.00 in Rain Light Rain
2:05 AM 39.2 °F - 37.4 °F 93% 29.72 in 10.0 mi Calm Calm - 0.00 in Rain Light Rain
2:32 AM 39.2 °F 35.9 °F 37.4 °F 93% 29.72 in 10.0 mi NNE 4.6 mph - 0.00 in Rain Light Rain
3:37 AM 39.2 °F 35.0 °F 37.4 °F 93% 29.73 in 10.0 mi NNE 5.8 mph - 0.01 in Rain Light Rain
3:53 AM 39.9 °F 35.8 °F 37.9 °F 93% 29.73 in 10.0 mi NNE 5.8 mph - 0.02 in Rain Light Rain
4:25 AM 39.2 °F 33.6 °F 37.4 °F 93% 29.73 in 10.0 mi NNE 8.1 mph - 0.01 in Rain Light Rain
4:53 AM 39.9 °F 35.8 °F 39.0 °F 97% 29.74 in 10.0 mi NE 5.8 mph - 0.01 in   Overcast
5:53 AM 39.9 °F 36.7 °F 39.0 °F 97% 29.75 in 10.0 mi NE 4.6 mph - 0.01 in Rain Light Rain
6:53 AM 39.9 °F 36.7 °F 39.0 °F 97% 29.75 in 10.0 mi NNE 4.6 mph - 0.01 in Rain Light Rain
7:07 AM 39.2 °F 33.0 °F 39.2 °F 100% 29.75 in 10.0 mi NNE 9.2 mph - 0.00 in Rain Light Rain
7:53 AM 41.0 °F 35.8 °F 39.0 °F 93% 29.76 in 10.0 mi NNE 8.1 mph - 0.00 in Rain Light Rain
8:53 AM 41.0 °F 37.1 °F 39.0 °F 93% 29.78 in 10.0 mi NE 5.8 mph - 0.01 in   Overcast
9:53 AM 42.1 °F 38.4 °F 39.9 °F 92% 29.80 in 10.0 mi NNE 5.8 mph - 0.00 in   Overcast
10:53 AM 43.0 °F 38.8 °F 39.9 °F 89% 29.81 in 10.0 mi NNE 6.9 mph - 0.00 in   Overcast
11:01 AM 42.8 °F 40.1 °F 41.0 °F 93% 29.81 in 10.0 mi NNE 4.6 mph - N/A   Overcast
11:53 AM 44.1 °F 39.5 °F 41.0 °F 89% 29.81 in 10.0 mi NNE 8.1 mph - N/A   Overcast
12:53 PM 44.1 °F 40.8 °F 41.0 °F 89% 29.82 in 10.0 mi NNE 5.8 mph - N/A   Overcast
1:53 PM 44.1 °F 40.8 °F 41.0 °F 89% 29.83 in 10.0 mi NNE 5.8 mph - N/A   Overcast
2:53 PM 43.0 °F 38.8 °F 39.9 °F 89% 29.83 in 10.0 mi NE 6.9 mph - N/A   Overcast
3:53 PM 41.0 °F 37.1 °F 39.0 °F 93% 29.85 in 10.0 mi NNE 5.8 mph - N/A   Scattered Clouds
4:53 PM 41.0 °F 38.0 °F 39.0 °F 93% 29.87 in 10.0 mi NE 4.6 mph - N/A   Overcast
5:53 PM 41.0 °F 37.1 °F 39.0 °F 93% 29.87 in 10.0 mi NE 5.8 mph - N/A   Overcast
6:53 PM 39.0 °F - 37.0 °F 93% 29.89 in 10.0 mi Calm Calm - N/A   Mostly Cloudy
7:53 PM 39.0 °F 36.8 °F 37.0 °F 93% 29.91 in 10.0 mi ENE 3.5 mph - N/A   Overcast
8:53 PM 37.0 °F - 35.1 °F 93% 29.92 in 10.0 mi Calm Calm - N/A   Clear
9:53 PM 36.0 °F - 35.1 °F 97% 29.93 in 10.0 mi Calm Calm - N/A   Partly Cloudy
10:53 PM 32.0 °F - 32.0 °F 100% 29.95 in 10.0 mi Calm Calm - N/A   Clear
11:53 PM 32.0 °F - 32.0 °F 100% 29.96 in 10.0 mi Calm Calm - 0.01 in   Scattered Clouds